Wind_Speed
14 14 13 14 14 15 17 19 20 20 19 18 16 15 12 13 14 10 14 10 13 11 10 7 9 6 10 12 12 12 18 21 23 21 22 26 26 25 25 26 26 26 26
13 12 13 13 14 16 17 16 15 17 15 13 13 11 10 12 12 11 11 12 14 13 8 7 7 9 9 12 9 10 16 23 20 21 24 27 28 25 24 26 26 25 24
10 11 12 13 15 16 14 12 15 15 11 11 8 7 9 9 8 7 9 13 11 14 8 8 6 5 7 10 12 10 15 20 24 25 24 25 26 26 24 25 26 27 25
9 12 12 14 15 12 12 13 14 10 8 6 7 8 8 4 6 6 12 8 10 8 6 3 4 5 7 5 11 17 15 19 21 23 24 26 25 26 23 24 24 21 26
11 12 12 14 14 14 15 14 15 11 8 7 7 10 7 2 5 6 10 8 6 7 2 4 5 6 7 8 13 19 21 20 22 21 23 25 23 25 24 25 25 22 23
11 10 12 13 13 13 13 14 15 10 10 10 8 9 10 5 4 6 9 5 6 7 10 5 4 8 7 9 12 20 23 23 25 24 20 27 22 20 25 22 23 25 27
9 10 12 11 11 10 11 11 12 10 9 10 9 10 10 7 4 4 5 7 8 6 4 4 3 9 11 11 16 22 21 22 24 27 25 26 25 24 24 24 24 24 24
9 10 10 9 8 8 8 7 9 9 8 9 8 10 5 7 5 1 3 4 3 7 2 4 8 8 11 13 16 19 22 24 24 22 26 28 24 26 25 30 30 29 25
10 9 7 6 6 5 4 5 7 9 8 9 8 9 6 8 6 3 3 3 5 5 3 3 6 8 7 11 16 19 20 22 22 24 23 25 25 25 28 28 27 28 15
9 7 6 5 3 3 2 4 8 9 9 9 8 9 9 9 6 3 4 3 4 6 4 5 7 10 12 15 17 20 22 20 24 22 22 25 25 29 23 21 24 26 19
9 7 6 4 2 4 4 6 7 9 10 10 8 10 11 11 6 4 3 3 4 5 6 9 13 11 11 14 22 25 24 24 23 23 23 23 28 20 18 23 20 21 23
10 8 6 4 4 5 6 8 9 8 11 10 10 12 12 10 7 4 3 4 3 6 8 9 9 13 15 15 17 21 24 22 22 24 26 24 16 16 16 19 20 24 19
11 9 7 3 3 4 6 7 6 6 9 10 12 13 14 8 7 4 3 4 8 10 10 10 12 15 14 15 19 25 25 25 22 20 20 19 18 19 22 27 24 21 21
12 10 8 5 3 2 2 3 1 4 9 13 13 13 12 8 8 5 4 6 8 9 9 10 11 12 11 11 14 21 29 28 24 21 19 20 22 24 20 21 23 23 20
12 11 10 7 4 3 4 4 4 6 13 16 14 16 12 10 7 5 6 8 8 9 10 12 11 11 12 14 17 22 22 20 21 21 22 25 22 20 21 22 21 19 18
14 13 11 10 9 10 10 8 6 6 11 13 16 16 12 10 7 9 8 8 6 9 11 15 14 17 22 24 23 20 21 19 17 18 19 22 22 20 18 18 18 18 15
15 15 13 14 14 13 10 6 5 5 15 18 17 15 14 12 10 10 11 11 11 12 14 17 16 18 26 24 20 18 17 14 22 22 19 19 17 16 18 19 17 14 11
17 16 16 18 16 13 10 9 12 14 21 17 18 17 16 16 16 15 15 14 15 19 18 15 16 20 21 18 16 23 28 24 21 18 17 16 17 17 17 16 14 13 11
20 18 19 19 16 13 11 11 15 18 17 18 17 18 17 16 16 15 14 14 15 18 20 19 18 17 17 18 21 19 19 20 19 18 17 16 16 16 15 12 10 11 10
22 21 22 21 16 13 12 13 14 16 16 17 18 14 12 11 11 11 11 11 11 13 14 16 19 19 17 15 13 13 14 15 15 15 14 13 13 12 11 10 9 8 9
23 23 22 20 19 15 12 12 14 14 15 15 14 14 13 13 13 13 13 12 11 9 10 11 13 14 15 16 17 17 17 16 14 13 11 9 9 9 9 9 7 9 11
22 23 23 22 20 18 15 13 12 13 13 12 13 14 14 14 13 12 11 10 10 10 9 9 10 11 12 13 13 12 11 11 11 12 11 11 10 9 10 11 12 13 15
23 23 24 24 22 21 20 17 15 13 12 12 11 11 11 12 12 12 11 11 10 9 9 9 10 11 12 13 14 13 12 13 13 13 13 13 13 13 13 13 14 16 18
27 25 24 25 25 24 23 21 19 17 15 15 15 14 14 13 12 12 12 11 11 11 11 12 13 13 15 17 18 19 19 19 18 18 18 17 18 18 18 17 18 19 21
34 29 25 24 22 22 22 21 21 20 20 19 19 18 17 17 16 14 13 13 14 14 14 14 15 16 17 17 18 19 20 20 20 21 22 23 23 22 21 21 22 23 24
31 34 29 28 26 24 23 23 21 20 20 20 20 20 21 21 21 20 20 20 20 21 21 21 22 22 22 22 22 23 23 25 26 27 27 26 26 26 26 26 27 28 28
Wind_Direction
240 239 247 258 265 264 272 287 293 289 289 286 281 283 266 264 266 280 309 311 318 310 305 281 284 245 209 196 204 199 195 189 201 183 187 185 183 184 186 186 187 192 198
231 247 255 266 263 268 282 290 286 290 286 278 282 269 263 273 276 289 298 304 311 309 310 290 267 268 215 199 190 192 191 198 186 186 187 188 189 185 183 186 186 188 189
240 249 262 266 267 277 282 281 282 282 281 283 276 255 263 271 282 285 320 307 313 319 301 269 270 237 202 209 209 186 182 186 188 183 184 185 184 183 183 184 186 190 192
247 250 258 261 271 277 273 276 270 274 283 290 246 248 247 276 284 290 322 326 320 310 324 240 168 176 169 184 196 181 173 168 175 181 185 186 181 179 178 178 182 173 166
238 250 255 268 275 273 270 263 258 259 276 281 257 249 243 310 312 299 333 331 332 331 297 321 164 153 148 170 168 168 175 168 168 172 171 174 180 179 179 181 182 182 171
236 249 260 272 276 277 270 252 248 252 276 286 271 249 239 267 329 295 327 320 327 360 13 28 144 149 156 149 155 169 169 167 167 175 176 174 177 173 178 178 180 174 183
240 243 264 278 287 282 272 254 245 251 268 288 284 254 240 251 262 312 339 330 337 352 341 36 160 150 150 137 157 165 172 169 174 168 167 166 174 176 169 166 170 177 172
231 241 268 283 286 279 268 260 249 234 257 285 284 243 229 221 197 321 5 2 26 359 29 47 99 165 153 146 146 159 164 174 169 173 167 168 170 164 164 171 167 168 175
220 240 266 276 284 287 289 258 234 231 254 284 277 229 215 207 180 129 83 39 8 33 60 73 112 143 154 164 152 147 154 159 164 169 167 165 169 167 162 169 187 182 176
213 234 254 264 300 304 288 258 244 242 253 266 261 204 198 188 175 139 115 89 29 47 63 100 115 124 145 158 162 148 152 158 163 167 167 166 166 162 171 173 168 187 172
212 222 233 248 271 273 291 308 295 244 236 243 223 193 188 177 174 146 133 81 59 65 105 116 116 114 134 153 167 164 157 156 158 154 162 166 161 163 173 178 179 178 168
210 213 218 227 255 264 293 307 302 240 220 221 200 188 182 172 160 151 145 111 56 122 121 121 131 119 111 133 152 160 159 158 159 158 154 162 172 181 187 191 176 161 152
208 204 212 209 252 290 307 305 284 223 210 202 184 174 178 170 158 155 133 123 100 133 129 123 127 132 113 116 134 144 156 158 159 164 172 179 173 167 157 153 156 161 154
205 201 199 189 219 312 355 12 50 203 200 184 173 164 164 158 160 158 158 153 138 119 149 128 138 142 133 110 135 140 140 147 152 155 162 170 171 163 159 153 149 160 164
198 195 181 174 150 115 109 79 78 120 144 152 155 152 162 167 161 155 159 162 151 144 142 148 136 137 143 127 133 139 143 145 151 148 151 154 158 142 149 164 166 160 163
192 183 169 155 136 121 107 91 96 149 145 146 152 158 161 149 141 144 154 159 170 162 149 145 131 136 138 131 121 124 137 141 146 147 149 147 149 158 165 159 163 172 182
185 180 161 149 143 128 112 76 29 176 165 150 148 148 146 132 121 124 139 148 136 140 143 145 146 149 149 146 142 142 153 151 147 140 150 154 159 171 172 172 178 190 203
181 172 156 149 145 131 110 80 60 117 143 142 145 145 142 135 129 119 120 139 144 131 134 139 152 155 154 157 150 142 138 140 144 151 156 164 172 176 180 189 201 214 218
179 167 159 157 153 141 123 108 102 120 125 127 130 140 145 144 136 127 122 121 125 131 131 136 145 148 153 151 150 152 152 153 159 165 170 173 180 189 199 211 226 228 236
182 173 169 166 166 154 137 129 123 123 125 131 129 128 129 135 136 133 133 133 133 130 134 138 140 143 149 154 158 161 163 165 167 170 174 187 199 210 223 231 233 237 248
184 181 178 181 175 172 159 143 141 135 131 132 136 139 138 135 131 123 116 111 110 126 138 153 160 164 166 168 168 166 165 170 176 183 191 196 202 206 215 230 240 248 259
196 190 188 186 189 188 187 182 168 155 150 148 146 143 143 145 149 150 147 140 135 130 125 138 164 168 170 172 176 180 183 187 192 198 204 214 224 231 238 248 258 265 271
191 197 196 194 197 200 199 202 204 200 190 184 181 176 172 169 167 165 165 169 171 172 171 170 171 173 177 176 178 185 196 207 215 221 228 231 236 248 260 269 275 281 284
193 195 196 198 198 205 210 208 211 215 218 220 219 216 215 215 211 203 201 202 201 198 200 204 207 208 211 214 218 221 226 231 235 238 242 248 255 262 268 275 281 283 285
190 191 193 194 199 207 213 218 219 222 228 232 237 240 240 239 242 247 248 245 242 240 241 241 240 237 234 233 236 240 245 250 252 253 254 257 261 268 275 277 277 276 280
210 198 195 197 197 200 207 212 217 220 225 228 233 239 243 246 247 247 248 249 250 252 254 255 257 259 262 266 270 273 276 278 277 275 274 273 275 277 279 279 277 274 275
Height
5728 5729 5730 5730 5729 5728 5727 5725 5723 5721 5719 5717 5717 5716 5715 5714 5713 5713 5712 5709 5706 5704 5702 5700 5699 5700 5700 5702 5704 5705 5706 5710 5712 5719 5724 5728 5733 5738 5743 5748 5753 5758 5762
5724 5725 5725 5724 5724 5723 5722 5720 5718 5717 5715 5714 5713 5712 5711 5711 5711 5711 5709 5707 5704 5700 5699 5697 5696 5697 5698 5701 5703 5705 5706 5709 5713 5718 5723 5728 5733 5738 5742 5746 5751 5757 5762
5719 5720 5720 5720 5719 5718 5717 5716 5715 5714 5712 5711 5709 5709 5709 5709 5709 5709 5707 5704 5701 5699 5695 5694 5694 5694 5696 5698 5700 5703 5705 5708 5713 5719 5722 5727 5732 5737 5742 5747 5751 5755 5760
5715 5716 5716 5715 5715 5714 5713 5713 5712 5711 5710 5708 5708 5708 5708 5708 5707 5707 5705 5701 5699 5696 5692 5692 5692 5692 5693 5695 5697 5701 5705 5708 5713 5718 5723 5728 5732 5737 5742 5746 5751 5754 5752
5711 5712 5712 5711 5710 5709 5709 5709 5709 5708 5707 5706 5706 5705 5705 5706 5705 5704 5702 5700 5698 5695 5692 5690 5690 5692 5692 5693 5695 5700 5705 5709 5714 5719 5723 5728 5733 5737 5743 5747 5751 5755 5759
5708 5708 5708 5707 5706 5704 5704 5704 5704 5705 5704 5703 5703 5703 5703 5704 5703 5703 5701 5699 5697 5695 5692 5690 5690 5692 5693 5694 5696 5701 5705 5709 5713 5718 5722 5727 5733 5738 5743 5748 5752 5758 5762
5704 5704 5704 5703 5702 5701 5700 5700 5700 5702 5701 5700 5700 5700 5701 5702 5701 5701 5700 5698 5696 5694 5693 5691 5691 5692 5694 5696 5698 5702 5706 5710 5714 5715 5721 5727 5731 5737 5743 5749 5754 5758 5763
5700 5701 5701 5700 5699 5698 5697 5696 5697 5698 5698 5698 5698 5698 5700 5700 5700 5700 5700 5698 5696 5695 5693 5692 5691 5692 5695 5698 5699 5702 5706 5710 5715 5720 5723 5727 5732 5737 5744 5749 5754 5760 5765
5696 5698 5698 5698 5697 5696 5694 5694 5695 5696 5696 5695 5696 5697 5698 5699 5699 5700 5700 5698 5696 5695 5694 5693 5693 5694 5695 5698 5701 5704 5708 5712 5717 5721 5727 5731 5735 5741 5745 5752 5757 5761 5764
5693 5695 5695 5695 5694 5694 5693 5693 5693 5693 5693 5693 5694 5696 5697 5698 5699 5699 5700 5700 5698 5695 5695 5695 5695 5695 5696 5699 5703 5706 5710 5715 5720 5725 5730 5735 5738 5743 5748 5752 5756 5762 5765
5691 5692 5693 5693 5693 5692 5692 5691 5690 5690 5690 5691 5693 5695 5696 5698 5699 5699 5700 5700 5699 5697 5696 5696 5697 5698 5698 5700 5703 5708 5713 5718 5724 5728 5733 5738 5742 5746 5749 5753 5758 5761 5766
5690 5690 5691 5691 5691 5691 5690 5689 5687 5687 5688 5689 5692 5693 5696 5698 5699 5699 5700 5701 5700 5699 5699 5699 5700 5700 5701 5703 5706 5710 5715 5720 5725 5730 5735 5740 5744 5748 5751 5755 5759 5763 5767
5688 5688 5689 5689 5690 5690 5688 5686 5685 5685 5686 5688 5691 5693 5696 5699 5699 5700 5701 5701 5701 5701 5701 5702 5703 5704 5705 5706 5709 5712 5716 5722 5727 5732 5737 5741 5745 5749 5752 5756 5760 5764 5767
5686 5687 5688 5688 5689 5688 5687 5686 5684 5683 5683 5686 5691 5693 5697 5700 5700 5701 5701 5702 5703 5703 5704 5705 5707 5708 5710 5711 5713 5716 5719 5724 5729 5733 5737 5742 5747 5751 5755 5758 5762 5766 5769
5685 5686 5686 5688 5689 5688 5687 5687 5686 5684 5684 5687 5691 5694 5698 5699 5701 5701 5702 5703 5704 5705 5706 5708 5710 5711 5713 5715 5717 5721 5725 5730 5733 5737 5741 5746 5750 5753 5757 5761 5763 5766 5770
5684 5686 5686 5688 5689 5688 5688 5688 5687 5687 5687 5689 5692 5695 5698 5700 5702 5702 5704 5705 5706 5707 5708 5710 5712 5714 5716 5719 5722 5726 5730 5734 5737 5741 5745 5748 5752 5755 5759 5761 5764 5768 5770
5684 5686 5686 5688 5690 5689 5690 5690 5687 5686 5689 5691 5694 5697 5700 5701 5702 5703 5706 5708 5708 5709 5711 5714 5716 5719 5721 5724 5727 5730 5733 5736 5739 5743 5747 5750 5753 5757 5759 5762 5765 5767 5768
5685 5686 5687 5689 5691 5692 5692 5692 5689 5685 5690 5694 5696 5699 5702 5704 5705 5707 5708 5709 5710 5712 5714 5717 5720 5722 5725 5727 5729 5731 5734 5738 5741 5745 5748 5751 5754 5757 5759 5762 5764 5766 5766
5685 5686 5688 5690 5691 5693 5694 5695 5695 5695 5696 5697 5699 5702 5704 5706 5707 5709 5711 5713 5714 5715 5716 5718 5721 5724 5727 5730 5732 5735 5737 5739 5742 5745 5748 5751 5755 5757 5760 5762 5763 5764 5765
5683 5685 5687 5690 5693 5695 5697 5698 5699 5700 5701 5703 5703 5706 5708 5710 5711 5712 5714 5715 5717 5719 5721 5723 5725 5727 5730 5733 5736 5738 5740 5743 5745 5748 5750 5753 5755 5757 5759 5759 5761 5762 5762
5681 5684 5687 5691 5692 5696 5698 5700 5702 5703 5704 5705 5707 5708 5710 5712 5714 5716 5717 5719 5720 5722 5724 5726 5728 5730 5732 5734 5736 5739 5742 5744 5747 5749 5751 5753 5754 5755 5757 5757 5758 5758 5757
5680 5682 5685 5689 5692 5695 5697 5701 5703 5705 5706 5708 5709 5709 5711 5713 5714 5716 5718 5720 5722 5724 5726 5727 5730 5732 5734 5737 5739 5741 5743 5745 5746 5748 5749 5751 5752 5753 5753 5753 5753 5753 5753
5676 5679 5682 5684 5688 5693 5695 5698 5702 5704 5707 5708 5710 5711 5712 5713 5714 5716 5718 5720 5722 5724 5726 5728 5729 5731 5733 5736 5738 5740 5742 5743 5744 5746 5747 5748 5749 5749 5749 5749 5749 5748 5747
5671 5674 5678 5681 5683 5688 5693 5695 5698 5702 5705 5707 5709 5710 5712 5714 5715 5716 5718 5719 5721 5722 5724 5725 5728 5730 5732 5733 5734 5736 5737 5738 5739 5740 5741 5742 5743 5743 5743 5743 5742 5741 5740
5663 5669 5673 5677 5681 5685 5689 5693 5696 5699 5702 5704 5707 5708 5710 5712 5713 5715 5717 5719 5720 5722 5723 5724 5725 5726 5727 5728 5729 5730 5731 5732 5733 5733 5734 5734 5735 5735 5735 5735 5735 5734 5733
5654 5660 5665 5670 5675 5679 5683 5687 5690 5692 5696 5699 5702 5704 5706 5708 5709 5712 5713 5714 5716 5717 5719 5720 5721 5721 5723 5724 5725 5725 5726 5727 5727 5727 5727 5728 5728 5728 5728 5728 5727 5726 5725